User: anonymous   Login
Location: The D'Auria's Ocala Star Observatory
(29.0276°N, 82.1742°W)
Time: 00:45:44
(UTC-05:00)
Language:

Okean 3 Rocket - Orbit

View from above orbital plane
View from above orbital plane
View from above satellite
View from above satellite

Ground track
Ground track

The orbit data is extracted from the following two-line orbital elements,

1 21398U 91039B   14325.72275567  .00000400  00000-0  50558-4 0  9082
2 21398 082.5235 019.6098 0021706 022.4245 116.9171 14.79290221265149
Epoch (UTC): 21 November 2014 17:20:46
Eccentricity: 0.0021706
inclination: 82.5235°
perigee height: 616 km
apogee height: 647 km
right ascension of ascending node: 19.6098°
argument of perigee: 22.4245°
revolutions per day: 14.79290221
mean anomaly at epoch: 116.9171°
orbit number at epoch: 26514

The dashed part of the orbit path shows where the satellite is in the earth's shadow,  

DLR